GW6304 Weather Reports


time (UTC)temp
C
wind
direction
speed
KPH
gust
KPH
rain 1hr
cm
rain 24hr
cm
rain mn
cm
humidity
%
barometer
mb
20260504050504 13 180 0.0 3.2 0.00 0.00 0.00 63 1015.8
20260504050008 13 180 0.0 3.2 0.00 0.00 0.00 60 1015.8
20260504045504 15 180 0.0 3.2 0.00 0.00 0.00 56 1015.6
20260504045006 15 180 0.0 4.8 0.00 0.00 0.00 53 1015.4
20260504044513 15 190 1.6 9.7 0.00 0.00 0.00 53 1015.5
20260504044006 15 193 1.6 9.7 0.00 0.00 0.00 53 1015.5
20260504043509 15 188 1.6 8.0 0.00 0.00 0.00 53 1015.4
20260504043029 15 172 3.2 8.0 0.00 0.00 0.00 53 1015.4
20260504042506 15 199 4.8 6.4 0.00 0.00 0.00 53 1015.4
20260504042012 15 174 3.2 6.4 0.00 0.00 0.00 54 1015.5
20260504041505 15 180 4.8 6.4 0.00 0.00 0.00 55 1015.5
20260504041002 15 180 3.2 4.8 0.00 0.00 0.00 55 1015.6
20260504040504 14 167 3.2 4.8 0.00 0.00 0.00 56 1015.8
20260504040016 14 175 3.2 4.8 0.00 0.00 0.00 56 1015.8
20260504035507 14 181 1.6 3.2 0.00 0.00 0.00 56 1015.7
20260504035007 14 180 1.6 3.2 0.00 0.00 0.00 56 1015.8
20260504034511 14 176 1.6 1.6 0.00 0.00 0.00 56 1016.0
20260504034006 14 176 1.6 3.2 0.00 0.00 0.00 57 1016.0
20260504033508 14 186 1.6 3.2 0.00 0.00 0.00 58 1016.0
20260504033018 14 186 0.0 3.2 0.00 0.00 0.00 56 1016.1
20260504032506 14 186 0.0 1.6 0.00 0.00 0.00 55 1016.0
20260504032011 14 186 1.6 1.6 0.00 0.00 0.00 55 1016.1
20260504031524 14 186 0.0 3.2 0.00 0.00 0.00 55 1016.3
20260504031010 14 186 0.0 3.2 0.00 0.00 0.00 55 1016.3
20260504030503 14 203 0.0 1.6 0.00 0.00 0.00 57 1016.4
20260504030008 13 203 1.6 1.6 0.00 0.00 0.00 59 1016.4
20260504025503 13 203 0.0 3.2 0.00 0.00 0.00 64 1016.4
20260504025004 13 203 0.0 3.2 0.00 0.00 0.00 62 1016.4
20260504024510 13 203 0.0 3.2 0.00 0.00 0.00 63 1016.4
20260504024004 13 203 0.0 3.2 0.00 0.00 0.00 63 1016.3
20260504023504 13 203 0.0 3.2 0.00 0.00 0.00 61 1016.4
20260504023015 13 203 0.0 3.2 0.00 0.00 0.00 60 1016.4
20260504022506 13 205 0.0 3.2 0.00 0.00 0.00 59 1016.4
20260504022008 13 205 0.0 1.6 0.00 0.00 0.00 57 1016.4
20260504021520 13 205 0.0 0.0 0.00 0.00 0.00 56 1016.3
20260504021006 13 205 0.0 3.2 0.00 0.00 0.00 59 1016.3
20260504020508 13 205 0.0 3.2 0.00 0.00 0.00 57 1016.2
20260504020025 14 205 0.0 0.0 0.00 0.00 0.00 56 1016.0
20260504015502 15 205 0.0 1.6 0.00 0.00 0.00 55 1015.9
20260504015002 15 205 0.0 3.2 0.00 0.00 0.00 51 1015.8
20260504014509 16 205 0.0 3.2 0.00 0.00 0.00 48 1015.8
20260504014005 16 217 0.0 3.2 0.00 0.00 0.00 44 1015.8
20260504013506 17 216 1.6 3.2 0.00 0.00 0.00 44 1015.6
20260504013016 17 177 1.6 9.7 0.00 0.00 0.00 43 1015.5
20260504012505 17 203 1.6 9.7 0.00 0.00 0.00 41 1015.5
20260504012007 17 219 1.6 4.8 0.00 0.00 0.00 41 1015.5
20260504011518 17 208 1.6 8.0 0.00 0.00 0.00 41 1015.5
20260504011010 17 205 3.2 9.7 0.00 0.00 0.00 40 1015.5
20260504010507 17 210 3.2 9.7 0.00 0.00 0.00 40 1015.7
20260504010019 17 260 3.2 9.7 0.00 0.00 0.00 40 1015.6
20260504005509 17 226 3.2 9.7 0.00 0.00 0.00 40 1015.6
20260504005009 18 213 3.2 11.3 0.00 0.00 0.00 39 1015.6
20260504004524 18 213 4.8 11.3 0.00 0.00 0.00 39 1015.6
20260504004003 18 255 4.8 11.3 0.00 0.00 0.00 39 1015.7
20260504003506 18 243 4.8 12.9 0.00 0.00 0.00 38 1015.6
20260504003007 18 232 3.2 12.9 0.00 0.00 0.00 38 1015.6
20260504002506 18 272 3.2 9.7 0.00 0.00 0.00 38 1015.5
20260504002004 18 178 3.2 11.3 0.00 0.00 0.00 37 1015.5
20260504001513 18 210 3.2 11.3 0.00 0.00 0.00 38 1015.5
20260504001007 19 245 3.2 11.3 0.00 0.00 0.00 38 1015.6
20260504000506 19 216 4.8 11.3 0.00 0.00 0.00 37 1015.7
20260504000020 19 255 6.4 12.9 0.00 0.00 0.00 37 1015.7
20260503235508 19 211 3.2 12.9 0.00 0.00 0.00 37 1015.7
20260503235007 19 219 6.4 14.5 0.00 0.00 0.00 36 1015.8
20260503234524 20 185 6.4 22.5 0.00 0.00 0.00 36 1015.8
20260503234008 20 210 6.4 22.5 0.00 0.00 0.00 36 1016.0
20260503233510 20 203 4.8 16.1 0.00 0.00 0.00 36 1016.0
20260503233009 20 199 3.2 9.7 0.00 0.00 0.00 35 1016.2
20260503232504 20 247 4.8 11.3 0.00 0.00 0.00 35 1016.1
20260503232004 20 235 4.8 11.3 0.00 0.00 0.00 34 1016.3
20260503231516 20 187 3.2 11.3 0.00 0.00 0.00 35 1016.2
20260503231006 20 191 3.2 20.9 0.00 0.00 0.00 34 1016.3
20260503230508 20 195 8.0 20.9 0.00 0.00 0.00 33 1016.4
20260503230020 20 245 6.4 17.7 0.00 0.00 0.00 33 1016.5
20260503225506 20 175 6.4 16.1 0.00 0.00 0.00 34 1016.4
20260503225007 20 216 6.4 16.1 0.00 0.00 0.00 34 1016.5
20260503224520 20 239 6.4 16.1 0.00 0.00 0.00 34 1016.5
20260503224010 20 251 3.2 12.9 0.00 0.00 0.00 33 1016.6
20260503223508 20 243 3.2 14.5 0.00 0.00 0.00 34 1016.6
20260503223024 20 213 6.4 16.1 0.00 0.00 0.00 33 1016.6
20260503222511 20 210 6.4 16.1 0.00 0.00 0.00 33 1016.6
20260503222003 20 223 8.0 16.1 0.00 0.00 0.00 33 1016.6
20260503221512 20 107 6.4 16.1 0.00 0.00 0.00 35 1016.7
20260503221008 20 266 6.4 16.1 0.00 0.00 0.00 31 1016.8
20260503220511 20 240 6.4 17.7 0.00 0.00 0.00 32 1016.9
20260503220015 20 222 6.4 17.7 0.00 0.00 0.00 34 1017.1
20260503215508 20 221 4.8 14.5 0.00 0.00 0.00 35 1017.2
20260503215007 20 241 6.4 14.5 0.00 0.00 0.00 34 1017.2
20260503214537 20 272 4.8 14.5 0.00 0.00 0.00 34 1017.3
20260503214009 20 230 4.8 17.7 0.00 0.00 0.00 34 1017.4
20260503213507 20 208 1.6 17.7 0.00 0.00 0.00 32 1017.4
20260503213025 20 211 8.0 17.7 0.00 0.00 0.00 35 1017.5
20260503212510 20 206 4.8 11.3 0.00 0.00 0.00 35 1017.5
20260503212010 20 224 1.6 6.4 0.00 0.00 0.00 35 1017.5
20260503211528 20 218 1.6 16.1 0.00 0.00 0.00 35 1017.7
20260503211004 20 196 1.6 16.1 0.00 0.00 0.00 35 1017.8
20260503210506 20 187 3.2 14.5 0.00 0.00 0.00 36 1017.9
20260503210012 20 175 4.8 12.9 0.00 0.00 0.00 34 1018.0
20260503205505 20 264 3.2 19.3 0.00 0.00 0.00 35 1018.1
20260503205005 20 212 4.8 19.3 0.00 0.00 0.00 33 1018.1
20260503204516 20 195 3.2 16.1 0.00 0.00 0.00 37 1018.2
20260503204007 20 154 8.0 16.1 0.00 0.00 0.00 34 1018.4
20260503203507 20 223 6.4 12.9 0.00 0.00 0.00 38 1018.4
20260503203024 19 203 3.2 17.7 0.00 0.00 0.00 33 1018.5
20260503202503 19 297 3.2 17.7 0.00 0.00 0.00 35 1018.6
20260503202004 20 233 9.7 17.7 0.00 0.00 0.00 33 1018.8
20260503201508 20 260 3.2 14.5 0.00 0.00 0.00 36 1018.8
20260503201007 20 165 3.2 12.9 0.00 0.00 0.00 34 1018.9
20260503200504 20 214 4.8 12.9 0.00 0.00 0.00 35 1019.1
20260503200013 19 165 4.8 14.5 0.00 0.00 0.00 34 1019.1
20260503195507 19 253 3.2 17.7 0.00 0.00 0.00 33 1019.3
20260503195005 19 230 6.4 17.7 0.00 0.00 0.00 31 1019.4
20260503194518 19 226 12.9 17.7 0.00 0.00 0.00 31 1019.4
20260503194007 19 232 4.8 11.3 0.00 0.00 0.00 36 1019.6
20260503193507 19 228 3.2 11.3 0.00 0.00 0.00 34 1019.7
20260503193029 19 217 3.2 17.7 0.00 0.00 0.00 33 1019.7
20260503192507 19 183 6.4 17.7 0.00 0.00 0.00 33 1019.7
20260503192011 18 203 0.0 16.1 0.00 0.00 0.00 35 1019.7
20260503191514 18 197 9.7 20.9 0.00 0.00 0.00 35 1019.8
20260503191004 18 205 6.4 20.9 0.00 0.00 0.00 35 1019.8
20260503190504 18 194 4.8 16.1 0.00 0.00 0.00 36 1020.0
20260503190011 18 249 6.4 16.1 0.00 0.00 0.00 36 1020.0
20260503185506 18 184 4.8 16.1 0.00 0.00 0.00 36 1020.0
20260503185006 18 206 6.4 19.3 0.00 0.00 0.00 36 1020.2
20260503184514 18 110 3.2 19.3 0.00 0.00 0.00 35 1020.2
20260503184007 18 83 1.6 14.5 0.00 0.00 0.00 38 1020.3
20260503183508 18 131 1.6 9.7 0.00 0.00 0.00 37 1020.5
20260503183020 17 253 4.8 9.7 0.00 0.00 0.00 37 1020.5
20260503182506 18 154 1.6 14.5 0.00 0.00 0.00 37 1020.6
20260503182012 18 180 1.6 14.5 0.00 0.00 0.00 36 1020.7
20260503181523 17 232 3.2 12.9 0.00 0.00 0.00 42 1020.7
20260503181007 17 283 3.2 17.7 0.00 0.00 0.00 38 1020.7
20260503180503 17 196 6.4 17.7 0.00 0.00 0.00 38 1020.7
20260503180009 17 215 1.6 17.7 0.00 0.00 0.00 36 1020.8
20260503175503 17 339 8.0 17.7 0.00 0.00 0.00 36 1020.8
20260503175006 17 262 0.0 17.7 0.00 0.00 0.00 40 1020.9
20260503174516 17 224 3.2 17.7 0.00 0.00 0.00 38 1021.0
20260503174004 17 278 3.2 9.7 0.00 0.00 0.00 36 1021.0
20260503173508 17 187 3.2 12.9 0.00 0.00 0.00 37 1021.0
20260503173025 17 207 4.8 14.5 0.00 0.00 0.00 36 1021.1
20260503172506 16 267 6.4 16.1 0.00 0.00 0.00 36 1021.2
20260503172009 16 166 6.4 16.1 0.00 0.00 0.00 36 1021.4
20260503171521 16 166 1.6 9.7 0.00 0.00 0.00 41 1021.4
20260503171012 16 216 3.2 14.5 0.00 0.00 0.00 41 1021.5
20260503170509 16 242 8.0 12.9 0.00 0.00 0.00 41 1021.7
20260503151005 13 174 1.6 6.4 0.00 0.00 0.00 40 1022.5
20260503150512 13 192 3.2 8.0 0.00 0.00 0.00 44 1022.4
20260503131005 8 118 0.0 3.2 0.00 0.00 0.00 87 1022.4
20260503130507 8 118 0.0 3.2 0.00 0.00 0.00 88 1022.4
20260503110507 3 35 0.0 0.0 0.00 0.00 0.00 91 1020.9
20260503090504 4 35 0.0 0.0 0.00 0.00 0.00 91 1020.5
20260503081534 5 35 0.0 0.0 0.00 0.00 0.00 90 1020.6
20260503081008 5 35 0.0 0.0 0.00 0.00 0.00 90 1020.6
20260503080504 5 35 0.0 0.0 0.00 0.00 0.00 90 1020.5
20260503072512 5 35 0.0 0.0 0.00 0.00 0.00 90 1020.6
20260503072010 6 35 0.0 0.0 0.00 0.00 0.00 90 1020.6
20260503071520 6 35 0.0 0.0 0.00 0.00 0.00 90 1020.5
20260503071008 6 35 0.0 0.0 0.00 0.00 0.00 90 1020.5
20260503070508 6 35 0.0 0.0 0.00 0.00 0.00 90 1020.4